Location: Rounton
(54.4000°N, 1.3500°W)
Time: 19:11:48
(UTC+00:00)

Altair - Pass Details

Date: 05 December 2021
Orbit: 1501 x 1683 km, 47.2° (Epoch: 16 January)

Event Time Altitude Azimuth Distance (km) Brightness Sun altitude
Rises 16:56:08 0° 244° (WSW) 4,757 12.5 -9.9°
Reaches altitude 10° 16:59:20 10° 240° (WSW) 3,749 11.1 -10.3°
Maximum altitude 17:08:21 53° 168° (SSE) 1,825 8.0 -11.5°
Enters shadow 17:16:57 11° 95° (E) 3,595 8.9 -12.6°
Drops below altitude 10° 17:17:09 10° 95° (E) 3,660 - -12.7°
Sets 17:20:14 0° 91° (E) 4,636 - -13.1°
